Location: La Brionne
(46.1728°N, 1.7849°E)
Time: 06:46:01
(UTC+00:00)

Cosmos 1674 - Pass Details

Date: 16 June 2021
Orbit: 494 x 514 km, 82.5° (Epoch: 02 August)

Event Time Altitude Azimuth Distance (km) Brightness Sun altitude
Exits shadow 20:22:24 - 140° (SE) 1,944 4.9 -5.6°
Reaches altitude 10° 20:23:12 10° 133° (SE) 1,697 4.6 -5.7°
Maximum altitude 20:25:48 19° 88° (E) 1,257 4.3 -6.0°
Drops below altitude 10° 20:28:26 10° 43° (NE) 1,703 5.4 -6.4°
Sets 20:31:01 0° 24° (NNE) 2,590 6.5 -6.7°
